,,PA_Meas_PMT16A,,PR_Meas_QMR101_102,,RH_Meas_QMH101,,SR_Meas_QMS101,,TA_Meas_QMH101,,GenWind,,GenWind,
time,status,PA,status,PR,status,RH,status,SR,status,TA,status,DirAvg,status,SpdAvg,
2012-05-02, 00:00:04,VALID,917.948,VALID,0,VALID,96.7411,VALID,0,VALID,20.2473,VALID,65,VALID,0.427344,
2012-05-02, 00:01:04,VALID,917.963,VALID,0,VALID,96.7488,VALID,0,VALID,20.2473,VALID,65,VALID,0.852734,
2012-05-02, 00:02:04,VALID,917.93,VALID,0,VALID,96.7716,VALID,0,VALID,20.2473,VALID,65,VALID,0.789063,
2012-05-02, 00:03:04,VALID,917.933,VALID,0,VALID,96.825,VALID,0,VALID,20.3074,VALID,65,VALID,0.723047,
2012-05-02, 00:04:04,VALID,917.945,VALID,0,VALID,96.8098,VALID,0,VALID,20.3058,VALID,65,VALID,1.03242,
2012-05-02, 00:05:04,VALID,917.958,VALID,0,VALID,96.8479,VALID,0,VALID,20.2863,VALID,65,VALID,0.630469,
2012-05-02, 00:06:04,VALID,917.968,VALID,0,VALID,96.886,VALID,0,VALID,20.2863,VALID,65,VALID,0.6375,
2012-05-02, 00:07:04,VALID,917.967,VALID,0,VALID,96.8784,VALID,0,VALID,20.2863,VALID,65,VALID,0.522266,
2012-05-02, 00:08:04,VALID,917.945,VALID,0,VALID,96.9012,VALID,0,VALID,20.3058,VALID,65,VALID,0.385156,
2012-05-02, 00:09:04,VALID,917.933,VALID,0,VALID,96.8936,VALID,0,VALID,20.3269,VALID,65,VALID,0.230469,
2012-05-02, 00:10:04,VALID,917.963,VALID,0,VALID,96.9089,VALID,0,VALID,20.3043,VALID,65,VALID,0.2375,
2012-05-02, 00:11:04,VALID,917.921,VALID,0,VALID,96.947,VALID,0,VALID,20.3628,VALID,65,VALID,0.189844,
2012-05-02, 00:12:04,VALID,917.902,VALID,0,VALID,96.9546,VALID,0,VALID,20.3838,VALID,65,VALID,0.672266,
2012-05-02, 00:13:04,VALID,917.923,VALID,0,VALID,96.9317,VALID,0,VALID,20.3838,VALID,65,VALID,0.812891,
2012-05-02, 00:14:04,VALID,917.892,VALID,0,VALID,96.947,VALID,0,VALID,20.3433,VALID,64,VALID,0.476953,
2012-05-02, 00:15:04,VALID,917.866,VALID,0,VALID,96.9012,VALID,0,VALID,20.3253,VALID,64,VALID,0.441797,
2012-05-02, 00:16:04,VALID,917.839,VALID,0,VALID,96.9317,VALID,0,VALID,20.3043,VALID,65,VALID,0.175,
2012-05-02, 00:17:04,VALID,917.79,VALID,0,VALID,96.9317,VALID,0,VALID,20.3643,VALID,65,VALID,0,
2012-05-02, 00:18:04,VALID,917.784,VALID,0,VALID,96.9622,VALID,0,VALID,20.3838,VALID,65,VALID,0,
2012-05-02, 00:19:04,VALID,917.791,VALID,0,VALID,96.9851,VALID,0,VALID,20.4423,VALID,65,VALID,0.264062,
2012-05-02, 00:20:04,VALID,917.801,VALID,0,VALID,97.0003,VALID,0,VALID,20.4018,VALID,65,VALID,0.594141,
2012-05-02, 00:21:04,VALID,917.808,VALID,0,VALID,97.0156,VALID,0,VALID,20.4408,VALID,65,VALID,0.733203,
2012-05-02, 00:22:04,VALID,917.816,VALID,0,VALID,96.9851,VALID,0,VALID,20.4423,VALID,65,VALID,0.9125,
2012-05-02, 00:23:04,VALID,917.784,VALID,0,VALID,96.9775,VALID,0,VALID,20.4423,VALID,38,VALID,1.03398,
2012-05-02, 00:24:04,VALID,917.78,VALID,0,VALID,96.9394,VALID,0,VALID,20.4033,VALID,29,VALID,1.50547,
2012-05-02, 00:25:04,VALID,917.79,VALID,0,VALID,96.8707,VALID,0,VALID,20.3448,VALID,36,VALID,0.965234,
2012-05-02, 00:26:04,VALID,917.765,VALID,0,VALID,96.9546,VALID,0,VALID,20.4049,VALID,49,VALID,0.745313,
2012-05-02, 00:27:04,VALID,917.729,VALID,0,VALID,96.9546,VALID,0,VALID,20.3448,VALID,9,VALID,1.33359,
2012-05-02, 00:28:04,VALID,917.729,VALID,0,VALID,96.9165,VALID,0,VALID,20.3269,VALID,33,VALID,1.03203,
2012-05-02, 00:29:04,VALID,917.727,VALID,0,VALID,96.9546,VALID,0,VALID,20.3253,VALID,33,VALID,0.730859,
2012-05-02, 00:30:04,VALID,917.729,VALID,0,VALID,96.9622,VALID,0,VALID,20.2863,VALID,54,VALID,0.91875,
2012-05-02, 00:31:04,VALID,917.711,VALID,0,VALID,96.9851,VALID,0,VALID,20.3074,VALID,54,VALID,0.911328,
2012-05-02, 00:32:04,VALID,917.702,VALID,0,VALID,96.9698,VALID,0,VALID,20.2863,VALID,54,VALID,0.785937,
2012-05-02, 00:33:04,VALID,917.734,VALID,0,VALID,96.9851,VALID,0,VALID,20.3464,VALID,54,VALID,0.113281,
2012-05-02, 00:34:04,VALID,917.699,VALID,0,VALID,97.0156,VALID,0,VALID,20.3074,VALID,54,VALID,0,
2012-05-02, 00:35:04,VALID,917.73,VALID,0,VALID,97.008,VALID,0,VALID,20.3074,VALID,54,VALID,0.599219,
2012-05-02, 00:36:04,VALID,917.706,VALID,0,VALID,97.0156,VALID,0,VALID,20.2668,VALID,54,VALID,0.640625,
2012-05-02, 00:37:04,VALID,917.723,VALID,0,VALID,97.0156,VALID,0,VALID,20.2879,VALID,54,VALID,0.6,
2012-05-02, 00:38:04,VALID,917.732,VALID,0,VALID,97.0308,VALID,0,VALID,20.3058,VALID,54,VALID,0.245703,
2012-05-02, 00:39:04,VALID,917.753,VALID,0,VALID,97.0461,VALID,0,VALID,20.3464,VALID,54,VALID,0,
2012-05-02, 00:40:04,VALID,917.738,VALID,0,VALID,97.0613,VALID,0,VALID,20.3643,VALID,54,VALID,0,
2012-05-02, 00:41:04,VALID,917.772,VALID,0,VALID,97.0918,VALID,0,VALID,20.3643,VALID,54,VALID,0,
2012-05-02, 00:42:04,VALID,917.764,VALID,0,VALID,97.0766,VALID,0,VALID,20.3253,VALID,54,VALID,0,
2012-05-02, 00:43:04,VALID,917.766,VALID,0,VALID,97.0537,VALID,0,VALID,20.3253,VALID,54,VALID,0,
2012-05-02, 00:44:04,VALID,917.746,VALID,0,VALID,97.0461,VALID,0,VALID,20.3058,VALID,54,VALID,0.0671875,
2012-05-02, 00:45:04,VALID,917.731,VALID,0,VALID,97.069,VALID,0,VALID,20.3043,VALID,54,VALID,0.154687,
2012-05-02, 00:46:04,VALID,917.769,VALID,0,VALID,97.0766,VALID,0,VALID,20.3253,VALID,54,VALID,0,
2012-05-02, 00:47:04,VALID,917.77,VALID,0,VALID,97.0918,VALID,0,VALID,20.3253,VALID,54,VALID,0,
2012-05-02, 00:48:04,VALID,917.741,VALID,0,VALID,97.069,VALID,0,VALID,20.3448,VALID,54,VALID,0,
2012-05-02, 00:49:04,VALID,917.739,VALID,0,VALID,97.0918,VALID,0,VALID,20.3448,VALID,54,VALID,0,
2012-05-02, 00:50:04,VALID,917.742,VALID,0,VALID,97.0766,VALID,0,VALID,20.3058,VALID,54,VALID,0,
2012-05-02, 00:51:04,VALID,917.729,VALID,0,VALID,97.0766,VALID,0,VALID,20.2848,VALID,54,VALID,0.140625,
2012-05-02, 00:52:04,VALID,917.715,VALID,0,VALID,97.0766,VALID,0,VALID,20.2863,VALID,54,VALID,0,
2012-05-02, 00:53:04,VALID,917.67,VALID,0,VALID,97.069,VALID,0,VALID,20.2863,VALID,54,VALID,0.109766,
2012-05-02, 00:54:04,VALID,917.644,VALID,0,VALID,97.0918,VALID,0,VALID,20.2653,VALID,54,VALID,0.453516,
2012-05-02, 00:55:04,VALID,917.65,VALID,0,VALID,97.0537,VALID,0,VALID,20.2068,VALID,54,VALID,0.284375,
2012-05-02, 00:56:04,VALID,917.645,VALID,0,VALID,97.0537,VALID,0,VALID,20.2083,VALID,54,VALID,0.129688,
2012-05-02, 00:57:04,VALID,917.64,VALID,0,VALID,97.0385,VALID,0,VALID,20.1678,VALID,54,VALID,0.457422,
2012-05-02, 00:58:04,VALID,917.643,VALID,0,VALID,97.0537,VALID,0,VALID,20.1693,VALID,54,VALID,0.110547,
2012-05-02, 00:59:04,VALID,917.657,VALID,0,VALID,97.0461,VALID,0,VALID,20.1678,VALID,54,VALID,0.0179687,
2012-05-02, 01:00:04,VALID,917.661,VALID,0,VALID,97.069,VALID,0,VALID,20.1693,VALID,54,VALID,0,
2012-05-02, 01:01:04,VALID,917.663,VALID,0,VALID,97.0613,VALID,0,VALID,20.1483,VALID,54,VALID,0,
2012-05-02, 01:02:04,VALID,917.626,VALID,0,VALID,97.0537,VALID,0,VALID,20.1693,VALID,54,VALID,0.0839844,
2012-05-02, 01:03:04,VALID,917.631,VALID,0,VALID,97.0461,VALID,0,VALID,20.1678,VALID,54,VALID,0.172266,
2012-05-02, 01:04:04,VALID,917.604,VALID,0,VALID,97.0537,VALID,0,VALID,20.1483,VALID,54,VALID,0,
2012-05-02, 01:05:04,VALID,917.592,VALID,0,VALID,97.0766,VALID,0,VALID,20.1498,VALID,54,VALID,0,
2012-05-02, 01:06:04,VALID,917.614,VALID,0,VALID,97.0308,VALID,0,VALID,20.1303,VALID,54,VALID,0,
2012-05-02, 01:07:04,VALID,917.584,VALID,0,VALID,96.9927,VALID,0,VALID,20.1108,VALID,54,VALID,0,
2012-05-02, 01:08:04,VALID,917.571,VALID,0,VALID,96.947,VALID,0,VALID,20.1093,VALID,54,VALID,0,
2012-05-02, 01:09:04,VALID,917.544,VALID,0,VALID,96.9927,VALID,0,VALID,20.1498,VALID,54,VALID,0,
2012-05-02, 01:10:04,VALID,917.523,VALID,0,VALID,96.9317,VALID,0,VALID,20.1303,VALID,54,VALID,0,
2012-05-02, 01:11:04,VALID,917.512,VALID,0,VALID,96.9622,VALID,0,VALID,20.1303,VALID,54,VALID,0,
2012-05-02, 01:12:04,VALID,917.521,VALID,0,VALID,96.9317,VALID,0,VALID,20.1498,VALID,54,VALID,0,
2012-05-02, 01:13:04,VALID,917.529,VALID,0,VALID,96.9394,VALID,0,VALID,20.1693,VALID,54,VALID,0,
2012-05-02, 01:14:04,VALID,917.517,VALID,0,VALID,96.947,VALID,0,VALID,20.1888,VALID,54,VALID,0,
2012-05-02, 01:15:04,VALID,917.502,VALID,0,VALID,96.9241,VALID,0,VALID,20.2068,VALID,54,VALID,0,
2012-05-02, 01:16:04,VALID,917.464,VALID,0,VALID,96.9241,VALID,0,VALID,20.2473,VALID,54,VALID,0,
2012-05-02, 01:17:04,VALID,917.478,VALID,0,VALID,96.9317,VALID,0,VALID,20.2653,VALID,54,VALID,0,
2012-05-02, 01:18:04,VALID,917.442,VALID,0,VALID,96.9317,VALID,0,VALID,20.3448,VALID,54,VALID,0,
2012-05-02, 01:19:04,VALID,917.38,VALID,0,VALID,96.7869,VALID,0,VALID,20.3253,VALID,54,VALID,0,
2012-05-02, 01:20:04,VALID,917.409,VALID,0,VALID,96.5353,VALID,0,VALID,20.2278,VALID,54,VALID,0.732031,
2012-05-02, 01:21:04,VALID,917.384,VALID,0,VALID,96.5658,VALID,0,VALID,20.2083,VALID,54,VALID,0.490625,
2012-05-02, 01:22:04,VALID,917.385,VALID,0,VALID,96.6573,VALID,0,VALID,20.2083,VALID,54,VALID,0.298828,
2012-05-02, 01:23:04,VALID,917.401,VALID,0,VALID,96.6497,VALID,0,VALID,20.1888,VALID,54,VALID,0.25,
2012-05-02, 01:24:04,VALID,917.36,VALID,0,VALID,96.7564,VALID,0,VALID,20.2083,VALID,54,VALID,0,
2012-05-02, 01:25:04,VALID,917.355,VALID,0,VALID,96.6649,VALID,0,VALID,20.2278,VALID,54,VALID,0.480859,
2012-05-02, 01:26:04,VALID,917.319,VALID,0,VALID,96.5811,VALID,0,VALID,20.1888,VALID,54,VALID,0.669922,
2012-05-02, 01:27:04,VALID,917.304,VALID,0,VALID,96.5811,VALID,0,VALID,20.1888,VALID,54,VALID,0.807813,
2012-05-02, 01:28:04,VALID,917.283,VALID,0,VALID,96.6344,VALID,0,VALID,20.1873,VALID,54,VALID,0.283203,
2012-05-02, 01:29:04,VALID,917.274,VALID,0,VALID,96.6268,VALID,0,VALID,20.2068,VALID,54,VALID,0.0351563,
2012-05-02, 01:30:04,VALID,917.256,VALID,0,VALID,96.6573,VALID,0,VALID,20.2263,VALID,54,VALID,0.329688,
2012-05-02, 01:31:04,VALID,917.225,VALID,0,VALID,96.7564,VALID,0,VALID,20.2653,VALID,54,VALID,0.522266,
2012-05-02, 01:32:04,VALID,917.217,VALID,0,VALID,96.6878,VALID,0,VALID,20.3058,VALID,54,VALID,0.230078,
2012-05-02, 01:33:04,VALID,917.2,VALID,0,VALID,96.6649,VALID,0.107441,VALID,20.3238,VALID,54,VALID,0,
2012-05-02, 01:34:04,VALID,917.191,VALID,0,VALID,96.6268,VALID,0,VALID,20.3433,VALID,54,VALID,0,
2012-05-02, 01:35:04,VALID,917.194,VALID,0,VALID,96.5963,VALID,0,VALID,20.3823,VALID,54,VALID,0,
2012-05-02, 01:36:05,VALID,917.178,VALID,0,VALID,96.5811,VALID,0.107441,VALID,20.4018,VALID,54,VALID,0,
2012-05-02, 01:37:05,VALID,917.185,VALID,0,VALID,96.5506,VALID,0,VALID,20.4618,VALID,54,VALID,0,
2012-05-02, 01:38:05,VALID,917.184,VALID,0,VALID,96.4819,VALID,0,VALID,20.4408,VALID,54,VALID,0,
2012-05-02, 01:39:05,VALID,917.185,VALID,0,VALID,96.4133,VALID,0,VALID,20.4408,VALID,54,VALID,0,
2012-05-02, 01:40:05,VALID,917.198,VALID,0,VALID,96.3905,VALID,0,VALID,20.4603,VALID,54,VALID,0,
2012-05-02, 01:41:05,VALID,917.175,VALID,0,VALID,96.177,VALID,0.107441,VALID,20.4408,VALID,54,VALID,0,
2012-05-02, 01:42:05,VALID,917.141,VALID,0,VALID,96.1618,VALID,0,VALID,20.4423,VALID,54,VALID,0,
2012-05-02, 01:43:05,VALID,917.185,VALID,0,VALID,96.2075,VALID,0,VALID,20.4618,VALID,54,VALID,0,
2012-05-02, 01:44:05,VALID,917.155,VALID,0,VALID,96.1618,VALID,0.107441,VALID,20.4408,VALID,54,VALID,0,
2012-05-02, 01:45:05,VALID,917.15,VALID,0,VALID,96.2151,VALID,0,VALID,20.5009,VALID,54,VALID,0,
2012-05-02, 01:46:05,VALID,917.152,VALID,0,VALID,96.177,VALID,0,VALID,20.5188,VALID,54,VALID,0,
2012-05-02, 01:47:05,VALID,917.176,VALID,0,VALID,96.0398,VALID,0,VALID,20.5204,VALID,54,VALID,0,
2012-05-02, 01:48:05,VALID,917.158,VALID,0,VALID,96.0093,VALID,0,VALID,20.4993,VALID,54,VALID,0,
2012-05-02, 01:49:05,VALID,917.157,VALID,0,VALID,95.9331,VALID,0,VALID,20.5204,VALID,54,VALID,0,
2012-05-02, 01:50:05,VALID,917.136,VALID,0,VALID,95.834,VALID,0,VALID,20.5009,VALID,54,VALID,0.204688,
2012-05-02, 01:51:05,VALID,917.161,VALID,0,VALID,95.7654,VALID,0,VALID,20.4813,VALID,54,VALID,0,
2012-05-02, 01:52:05,VALID,917.115,VALID,0,VALID,95.7577,VALID,0,VALID,20.4603,VALID,54,VALID,0,
2012-05-02, 01:53:05,VALID,917.107,VALID,0,VALID,95.7577,VALID,0,VALID,20.5009,VALID,54,VALID,0,
2012-05-02, 01:54:05,VALID,917.094,VALID,0,VALID,95.6967,VALID,0,VALID,20.4798,VALID,54,VALID,0,
2012-05-02, 01:55:05,VALID,917.074,VALID,0,VALID,95.6053,VALID,0,VALID,20.4798,VALID,54,VALID,0,
2012-05-02, 01:56:05,VALID,917.07,VALID,0,VALID,95.5214,VALID,0,VALID,20.4798,VALID,54,VALID,0,
2012-05-02, 01:57:05,VALID,917.076,VALID,0,VALID,95.5976,VALID,0,VALID,20.5188,VALID,54,VALID,0,
2012-05-02, 01:58:05,VALID,917.069,VALID,0,VALID,95.5976,VALID,0.107441,VALID,20.5383,VALID,54,VALID,0,
2012-05-02, 01:59:05,VALID,917.077,VALID,0,VALID,95.5748,VALID,0,VALID,20.5773,VALID,54,VALID,0,
2012-05-02, 02:00:05,VALID,917.096,VALID,0,VALID,95.5519,VALID,0,VALID,20.6179,VALID,54,VALID,0.439844,
2012-05-02, 02:01:05,VALID,917.087,VALID,0,VALID,95.5976,VALID,0,VALID,20.6553,VALID,54,VALID,0.132031,
2012-05-02, 02:02:05,VALID,917.091,VALID,0,VALID,95.5671,VALID,0,VALID,20.6764,VALID,54,VALID,0.217578,
2012-05-02, 02:03:05,VALID,917.062,VALID,0,VALID,95.5595,VALID,0.107441,VALID,20.6748,VALID,54,VALID,0,
2012-05-02, 02:04:05,VALID,917.054,VALID,0,VALID,95.5595,VALID,0,VALID,20.6943,VALID,54,VALID,0.00898437,
2012-05-02, 02:05:05,VALID,917.009,VALID,0,VALID,95.5519,VALID,0,VALID,20.6748,VALID,54,VALID,0,
2012-05-02, 02:06:05,VALID,916.983,VALID,0,VALID,95.5671,VALID,0,VALID,20.6959,VALID,54,VALID,0.174219,
2012-05-02, 02:07:05,VALID,916.991,VALID,0,VALID,95.5519,VALID,0,VALID,20.6959,VALID,54,VALID,0,
2012-05-02, 02:08:05,VALID,916.991,VALID,0,VALID,95.529,VALID,0.107441,VALID,20.6748,VALID,54,VALID,0,
2012-05-02, 02:09:05,VALID,916.985,VALID,0,VALID,95.5214,VALID,0,VALID,20.6959,VALID,54,VALID,0,
2012-05-02, 02:10:05,VALID,917.016,VALID,0,VALID,95.4833,VALID,0,VALID,20.6553,VALID,54,VALID,0,
2012-05-02, 02:11:05,VALID,917.008,VALID,0,VALID,95.4604,VALID,0,VALID,20.6748,VALID,54,VALID,0,
2012-05-02, 02:12:05,VALID,917.017,VALID,0,VALID,95.529,VALID,0.107441,VALID,20.7154,VALID,54,VALID,0,
2012-05-02, 02:13:05,VALID,917.01,VALID,0,VALID,95.6053,VALID,0.107441,VALID,20.7333,VALID,54,VALID,0,
2012-05-02, 02:14:05,VALID,916.999,VALID,0,VALID,95.4452,VALID,0,VALID,20.7333,VALID,54,VALID,0,
2012-05-02, 02:15:05,VALID,916.954,VALID,0,VALID,95.3994,VALID,0,VALID,20.7138,VALID,54,VALID,0,
2012-05-02, 02:16:05,VALID,916.965,VALID,0,VALID,95.3613,VALID,0,VALID,20.6943,VALID,54,VALID,0,
2012-05-02, 02:17:05,VALID,916.915,VALID,0,VALID,95.4757,VALID,0,VALID,20.6943,VALID,54,VALID,0,
2012-05-02, 02:18:05,VALID,916.932,VALID,0,VALID,95.4604,VALID,0.107441,VALID,20.7349,VALID,54,VALID,0,
2012-05-02, 02:19:05,VALID,916.907,VALID,0,VALID,95.5519,VALID,0,VALID,20.7544,VALID,54,VALID,0,
2012-05-02, 02:20:05,VALID,916.906,VALID,0,VALID,95.5062,VALID,0,VALID,20.7528,VALID,54,VALID,0.176172,
2012-05-02, 02:21:05,VALID,916.867,VALID,0,VALID,95.4909,VALID,0,VALID,20.7934,VALID,54,VALID,0.0546875,
2012-05-02, 02:22:05,VALID,916.862,VALID,0,VALID,95.3918,VALID,0,VALID,20.8129,VALID,54,VALID,0,
2012-05-02, 02:23:05,VALID,916.91,VALID,0,VALID,95.4147,VALID,0,VALID,20.8129,VALID,54,VALID,0,
2012-05-02, 02:24:05,VALID,916.9,VALID,0,VALID,95.2851,VALID,0,VALID,20.7918,VALID,54,VALID,0,
2012-05-02, 02:25:05,VALID,916.883,VALID,0,VALID,95.2927,VALID,0,VALID,20.8113,VALID,54,VALID,0,
2012-05-02, 02:26:05,VALID,916.843,VALID,0,VALID,95.2317,VALID,0,VALID,20.8324,VALID,54,VALID,0.220313,
2012-05-02, 02:27:05,VALID,916.848,VALID,0,VALID,95.1021,VALID,0,VALID,20.7918,VALID,54,VALID,0.134766,
2012-05-02, 02:28:05,VALID,916.828,VALID,0,VALID,95.003,VALID,0,VALID,20.7528,VALID,54,VALID,0.423438,
2012-05-02, 02:29:05,VALID,916.803,VALID,0,VALID,95.003,VALID,0,VALID,20.7544,VALID,54,VALID,0.482422,
2012-05-02, 02:30:05,VALID,916.807,VALID,0,VALID,95.0335,VALID,0,VALID,20.7544,VALID,54,VALID,0.214844,
2012-05-02, 02:31:05,VALID,916.784,VALID,0,VALID,95.064,VALID,0,VALID,20.7349,VALID,54,VALID,0.125391,
2012-05-02, 02:32:05,VALID,916.744,VALID,0,VALID,95.1402,VALID,0,VALID,20.7138,VALID,54,VALID,0,
2012-05-02, 02:33:05,VALID,916.754,VALID,0,VALID,95.2012,VALID,0.107441,VALID,20.7138,VALID,54,VALID,0,
2012-05-02, 02:34:05,VALID,916.738,VALID,0,VALID,95.2317,VALID,0,VALID,20.7349,VALID,54,VALID,0,
2012-05-02, 02:35:05,VALID,916.729,VALID,0,VALID,95.3079,VALID,0,VALID,20.7154,VALID,54,VALID,0,
2012-05-02, 02:36:05,VALID,916.724,VALID,0,VALID,95.3689,VALID,0,VALID,20.6748,VALID,54,VALID,0,
2012-05-02, 02:37:05,VALID,916.721,VALID,0,VALID,95.4604,VALID,0,VALID,20.6553,VALID,54,VALID,0,
2012-05-02, 02:38:05,VALID,916.678,VALID,0,VALID,95.529,VALID,0,VALID,20.6358,VALID,54,VALID,0,
2012-05-02, 02:39:05,VALID,916.711,VALID,0,VALID,95.6053,VALID,0,VALID,20.6569,VALID,54,VALID,0,
2012-05-02, 02:40:05,VALID,916.663,VALID,0,VALID,95.6434,VALID,0,VALID,20.6585,VALID,54,VALID,0,
2012-05-02, 02:41:05,VALID,916.654,VALID,0,VALID,95.6967,VALID,0,VALID,20.6374,VALID,54,VALID,0,
2012-05-02, 02:42:05,VALID,916.629,VALID,0,VALID,95.6815,VALID,0,VALID,20.6179,VALID,54,VALID,0,
2012-05-02, 02:43:05,VALID,916.645,VALID,0,VALID,95.712,VALID,0,VALID,20.5984,VALID,54,VALID,0,
2012-05-02, 02:44:05,VALID,916.632,VALID,0,VALID,95.7806,VALID,0,VALID,20.5789,VALID,54,VALID,0,
2012-05-02, 02:45:05,VALID,916.664,VALID,0,VALID,95.8263,VALID,0,VALID,20.5594,VALID,54,VALID,0,
2012-05-02, 02:46:05,VALID,916.653,VALID,0,VALID,95.8721,VALID,0,VALID,20.5789,VALID,54,VALID,0,
2012-05-02, 02:47:05,VALID,916.673,VALID,0,VALID,95.9559,VALID,0,VALID,20.5999,VALID,54,VALID,0,
2012-05-02, 02:48:05,VALID,916.672,VALID,0,VALID,96.0017,VALID,0,VALID,20.5999,VALID,54,VALID,0,
2012-05-02, 02:49:05,VALID,916.689,VALID,0,VALID,96.0322,VALID,0,VALID,20.5999,VALID,54,VALID,0,
2012-05-02, 02:50:05,VALID,916.673,VALID,0,VALID,96.1313,VALID,0,VALID,20.6194,VALID,54,VALID,0,
2012-05-02, 02:51:05,VALID,916.667,VALID,0,VALID,96.177,VALID,0,VALID,20.6374,VALID,54,VALID,0,
2012-05-02, 02:52:05,VALID,916.658,VALID,0,VALID,96.1846,VALID,0,VALID,20.6569,VALID,54,VALID,0,
2012-05-02, 02:53:05,VALID,916.655,VALID,0,VALID,96.1846,VALID,0,VALID,20.678,VALID,54,VALID,0,
2012-05-02, 02:54:05,VALID,916.628,VALID,0,VALID,96.1084,VALID,0,VALID,20.6764,VALID,54,VALID,0,
2012-05-02, 02:55:05,VALID,916.6,VALID,0,VALID,96.0093,VALID,0,VALID,20.6764,VALID,54,VALID,0,
2012-05-02, 02:56:05,VALID,916.601,VALID,0,VALID,96.0093,VALID,0,VALID,20.6163,VALID,54,VALID,0,
2012-05-02, 02:57:05,VALID,916.591,VALID,0,VALID,96.0398,VALID,0,VALID,20.5773,VALID,54,VALID,0,
2012-05-02, 02:58:05,VALID,916.606,VALID,0,VALID,96.116,VALID,0,VALID,20.5968,VALID,54,VALID,0,
2012-05-02, 02:59:05,VALID,916.56,VALID,0,VALID,96.0932,VALID,0,VALID,20.5968,VALID,54,VALID,0,
2012-05-02, 03:00:05,VALID,916.539,VALID,0,VALID,96.0322,VALID,0,VALID,20.5773,VALID,54,VALID,0,
2012-05-02, 03:01:05,VALID,916.561,VALID,0,VALID,96.0093,VALID,0,VALID,20.5773,VALID,54,VALID,0,
2012-05-02, 03:02:05,VALID,916.521,VALID,0,VALID,96.0398,VALID,0,VALID,20.5773,VALID,54,VALID,0,
2012-05-02, 03:03:05,VALID,916.49,VALID,0,VALID,96.0322,VALID,0,VALID,20.5578,VALID,54,VALID,0,
2012-05-02, 03:04:05,VALID,916.496,VALID,0,VALID,96.0474,VALID,0,VALID,20.5578,VALID,54,VALID,0,
2012-05-02, 03:05:05,VALID,916.485,VALID,0,VALID,96.0855,VALID,0,VALID,20.5578,VALID,54,VALID,0,
2012-05-02, 03:06:05,VALID,916.465,VALID,0,VALID,96.0855,VALID,0,VALID,20.5367,VALID,54,VALID,0,
2012-05-02, 03:07:05,VALID,916.453,VALID,0,VALID,96.1465,VALID,0,VALID,20.5578,VALID,54,VALID,0.182031,
2012-05-02, 03:08:05,VALID,916.415,VALID,0,VALID,96.1313,VALID,0.107441,VALID,20.5578,VALID,54,VALID,0.546484,
2012-05-02, 03:09:05,VALID,916.387,VALID,0,VALID,96.1236,VALID,0,VALID,20.5383,VALID,54,VALID,0.372656,
2012-05-02, 03:10:05,VALID,916.385,VALID,0,VALID,96.0855,VALID,0,VALID,20.5009,VALID,54,VALID,0.750391,
2012-05-02, 03:11:05,VALID,916.334,VALID,0,VALID,96.1236,VALID,0,VALID,20.4829,VALID,54,VALID,0.485156,
2012-05-02, 03:12:05,VALID,916.32,VALID,0,VALID,96.1694,VALID,0,VALID,20.4618,VALID,54,VALID,0.620313,
2012-05-02, 03:13:05,VALID,916.328,VALID,0,VALID,96.1465,VALID,0,VALID,20.4439,VALID,54,VALID,0.533203,
2012-05-02, 03:14:05,VALID,916.289,VALID,0,VALID,96.1694,VALID,0,VALID,20.4228,VALID,54,VALID,0.975781,
2012-05-02, 03:15:05,VALID,916.289,VALID,0,VALID,96.2075,VALID,0,VALID,20.3854,VALID,54,VALID,0.703906,
2012-05-02, 03:16:05,VALID,916.234,VALID,0,VALID,96.2761,VALID,0,VALID,20.3238,VALID,54,VALID,0.866406,
2012-05-02, 03:17:05,VALID,916.237,VALID,0,VALID,96.3066,VALID,0,VALID,20.3253,VALID,54,VALID,0.697266,
2012-05-02, 03:18:05,VALID,916.177,VALID,0,VALID,96.3524,VALID,0,VALID,20.3253,VALID,54,VALID,1.03203,
2012-05-02, 03:19:05,VALID,916.152,VALID,0,VALID,96.3905,VALID,0,VALID,20.2668,VALID,54,VALID,0.558984,
2012-05-02, 03:20:05,VALID,916.129,VALID,0,VALID,96.4133,VALID,0,VALID,20.2668,VALID,54,VALID,0.750391,
2012-05-02, 03:21:05,VALID,916.08,VALID,0,VALID,96.4515,VALID,0,VALID,20.2684,VALID,54,VALID,0.349219,
2012-05-02, 03:22:05,VALID,916.034,VALID,0,VALID,96.4896,VALID,0,VALID,20.2278,VALID,54,VALID,0.510547,
2012-05-02, 03:23:05,VALID,915.997,VALID,0,VALID,96.4972,VALID,0,VALID,20.2083,VALID,54,VALID,0.457812,
2012-05-02, 03:24:05,VALID,915.985,VALID,0,VALID,96.5124,VALID,0,VALID,20.1888,VALID,54,VALID,0.758984,
2012-05-02, 03:25:05,VALID,915.968,VALID,0,VALID,96.5048,VALID,0,VALID,20.1693,VALID,54,VALID,0.567969,
2012-05-02, 03:26:05,VALID,915.943,VALID,0,VALID,96.5429,VALID,0,VALID,20.1303,VALID,54,VALID,0.528516,
2012-05-02, 03:27:05,VALID,915.921,VALID,0,VALID,96.5887,VALID,0,VALID,20.1513,VALID,54,VALID,0.521484,
2012-05-02, 03:28:05,VALID,915.903,VALID,0,VALID,96.6192,VALID,0,VALID,20.0913,VALID,54,VALID,0.477344,
2012-05-02, 03:29:05,VALID,915.892,VALID,0,VALID,96.6573,VALID,0,VALID,20.1123,VALID,54,VALID,0.74375,
2012-05-02, 03:30:05,VALID,915.888,VALID,0,VALID,96.6878,VALID,0,VALID,20.0928,VALID,54,VALID,0.558203,
2012-05-02, 03:31:05,VALID,915.896,VALID,0,VALID,96.703,VALID,0,VALID,20.0523,VALID,54,VALID,0.622656,
2012-05-02, 03:32:05,VALID,915.895,VALID,0,VALID,96.7716,VALID,0,VALID,20.0523,VALID,54,VALID,0.735156,
2012-05-02, 03:33:05,VALID,915.897,VALID,0,VALID,96.7945,VALID,0,VALID,20.0928,VALID,54,VALID,0.744531,
2012-05-02, 03:34:05,VALID,915.903,VALID,0,VALID,96.8326,VALID,0,VALID,20.0718,VALID,54,VALID,0.697656,
2012-05-02, 03:35:05,VALID,915.889,VALID,0,VALID,96.8174,VALID,0,VALID,20.0718,VALID,54,VALID,0.576953,
2012-05-02, 03:36:05,VALID,915.898,VALID,0,VALID,96.8479,VALID,0,VALID,20.0928,VALID,54,VALID,0.761328,
2012-05-02, 03:37:05,VALID,915.87,VALID,0,VALID,96.8936,VALID,0,VALID,20.1123,VALID,54,VALID,0.816797,
2012-05-02, 03:38:05,VALID,915.87,VALID,0,VALID,96.8784,VALID,0,VALID,20.0913,VALID,54,VALID,0.770703,
2012-05-02, 03:39:05,VALID,915.881,VALID,0,VALID,96.9012,VALID,0,VALID,20.1318,VALID,54,VALID,0.751172,
2012-05-02, 03:40:05,VALID,915.863,VALID,0,VALID,96.8707,VALID,0.107441,VALID,20.1093,VALID,54,VALID,0.808594,
2012-05-02, 03:41:05,VALID,915.88,VALID,0,VALID,96.8555,VALID,0,VALID,20.1288,VALID,54,VALID,0.693359,
2012-05-02, 03:42:05,VALID,915.86,VALID,0,VALID,96.8784,VALID,0.107441,VALID,20.1483,VALID,54,VALID,0.818359,
2012-05-02, 03:43:05,VALID,915.859,VALID,0,VALID,96.8631,VALID,0.107441,VALID,20.1678,VALID,54,VALID,0.597656,
2012-05-02, 03:44:05,VALID,915.889,VALID,0,VALID,96.8631,VALID,0.107441,VALID,20.1873,VALID,54,VALID,0.6,
2012-05-02, 03:45:05,VALID,915.899,VALID,0,VALID,96.8326,VALID,0.107441,VALID,20.2068,VALID,54,VALID,0.495703,
2012-05-02, 03:46:05,VALID,915.898,VALID,0,VALID,96.7488,VALID,0,VALID,20.2068,VALID,54,VALID,0.379687,
2012-05-02, 03:47:05,VALID,915.902,VALID,0,VALID,96.6497,VALID,0,VALID,20.1678,VALID,54,VALID,0.425781,
2012-05-02, 03:48:05,VALID,915.933,VALID,0,VALID,96.642,VALID,0.107441,VALID,20.1483,VALID,54,VALID,0.510156,
2012-05-02, 03:49:05,VALID,915.935,VALID,0,VALID,96.6268,VALID,0,VALID,20.1483,VALID,54,VALID,0.484375,
2012-05-02, 03:50:05,VALID,915.946,VALID,0,VALID,96.6344,VALID,0,VALID,20.1288,VALID,54,VALID,0.875391,
2012-05-02, 03:51:05,VALID,915.98,VALID,0,VALID,96.7335,VALID,0.107441,VALID,20.1678,VALID,54,VALID,0.946094,
2012-05-02, 03:52:05,VALID,916.021,VALID,0,VALID,96.6573,VALID,0,VALID,20.1483,VALID,54,VALID,1.06641,